This demonstration page uses our WeatherBlox Daily Observations layout. Learn more.

Left ArrowRight Arrow

53.62937, 11.41316

Hourly Observations for May 12, 2019

Temp ( °F °C ) Dew Point ( °F °C ) Humidity (%) Winds ( mph kmh ) Pressure ( in mb ) Visibility ( mi km ) Precip ( " mm )
6:50 am 06:50 Mostly Sunny 41 5 36 2 81 81 W 5 7 30.30 1026 7 11 N/A
7:20 am 07:20 Mostly Sunny 43 6 37 3 81 81 W 5 7 30.33 1027 7 11 N/A
7:50 am 07:50 Mostly Sunny 45 7 37 3 76 76 WNW 6 9 30.33 1027 7 11 N/A
8:20 am 08:20 Mostly Sunny 45 7 37 3 76 76 VRB 6 9 30.33 1027 30 48 N/A
8:50 am 08:50 Mostly Sunny 46 8 37 3 71 71 VRB 6 9 30.36 1028 30 48 N/A
9:20 am 09:20 Mostly Sunny 48 9 37 3 66 66 VRB 6 9 30.36 1028 30 48 N/A
9:50 am 09:50 Mostly Sunny 50 10 37 3 62 62 VRB 8 13 30.36 1028 30 48 N/A
10:20 am 10:20 Mostly Sunny 50 10 36 2 58 58 WNW 7 11 30.36 1028 30 48 N/A
10:50 am 10:50 Mostly Sunny 52 11 34 1 50 50 WNW 9 15 30.39 1029 30 48 N/A
11:20 am 11:20 Mostly Sunny 54 12 34 1 47 47 VRB 7 11 30.39 1029 30 48 N/A
11:50 am 11:50 Mostly Sunny 54 12 34 1 47 47 WNW 8 13 30.39 1029 30 48 N/A
12:20 pm 12:20 Mostly Sunny 55 13 32 undefined 41 41 VRB 8 13 30.39 1029 7 11 N/A
12:50 pm 12:50 Mostly Sunny 55 13 30 -1 38 38 NW 8 13 30.39 1029 7 11 N/A
1:20 pm 13:20 Mostly Sunny 57 14 30 -1 36 36 WNW 8 13 30.39 1029 7 11 N/A
1:50 pm 13:50 Mostly Sunny 57 14 32 undefined 39 39 VRB 8 13 30.42 1030 7 11 N/A
2:20 pm 14:20 Mostly Sunny 57 14 32 undefined 39 39 WNW 8 13 30.42 1030 7 11 N/A
2:50 pm 14:50 Mostly Sunny 59 15 34 1 39 39 WNW 8 13 30.42 1030 7 11 N/A
3:20 pm 15:20 Mostly Sunny 57 14 30 -1 36 36 VRB 7 11 30.45 1031 7 11 N/A
3:50 pm 15:50 Mostly Sunny 57 14 34 1 41 41 VRB 7 11 30.45 1031 7 11 N/A
4:20 pm 16:20 Mostly Sunny 57 14 32 undefined 39 39 WNW 10 17 30.45 1031 7 11 N/A
4:50 pm 16:50 Mostly Sunny 57 14 32 undefined 39 39 W 9 15 30.45 1031 7 11 N/A
5:20 pm 17:20 Mostly Sunny 59 15 32 undefined 36 36 W 10 17 30.45 1031 7 11 N/A
5:50 pm 17:50 Mostly Sunny 59 15 32 undefined 36 36 WNW 8 13 30.45 1031 7 11 N/A
6:20 pm 18:20 Mostly Sunny 57 14 32 undefined 39 39 NW 6 9 30.48 1032 7 11 N/A
6:50 pm 18:50 Mostly Sunny 57 14 32 undefined 39 39 WNW 8 13 30.48 1032 7 11 N/A
7:20 pm 19:20 Mostly Sunny 55 13 32 undefined 41 41 WNW 8 13 30.48 1032 7 11 N/A
7:50 pm 19:50 Mostly Sunny 55 13 30 -1 38 38 WNW 8 13 30.48 1032 7 11 N/A
8:20 pm 20:20 Mostly Sunny 54 12 30 -1 41 41 WNW 7 11 30.51 1033 7 11 N/A
8:50 pm 20:50 Mostly Sunny 52 11 30 -1 44 44 WNW 6 9 30.51 1033 7 11 N/A

Powered by AerisWeather